Showing default

CHUBUSAT 2, 41338

Orbit data source: Space-Track

CHUBUSAT 2, 41338 is a payload satellite owned by Nagoya (JP) in LEO that was launched on Wed, 17 Feb 2016 UTC via an H-IIA 202 launch vehicle from the Tanegashima Space Center (TNSTA). Payloads include a variety of satellites, spacecraft, and rockets equipped with specific instruments for various scientific and technological missions. These include communications satellites like Starlink; space stations such as the ISS; scientific satellites like the Hubble; Earth observation satellites from companies like Planet Labs, Umbra, and HawkEye 360; GPS; miniature CubeSats for education and research; and military/defense satellites.

Loading next visibility...
CHUBUSAT 2 details
Identifier
41338, 2016-012B
Orbit
LEO
Last TLE update12 hours ago
Origin
Flag of JPNagoya (JP / JPN)
ManufacturerNagoya
MissionNon-operational Amateur Science
Bus & MotorUnknown
Mass50 kg wet, 50 kg dry
Launch date (UTC)
2016-02-17 (9 years ago)
Launch vehicle
H-IIA 202
Launch site
Tanegashima Space Center (TNSTA)
Object type
Payload
Rocket body
Debris
Shape & HBRBox, 0.6 m
Radar Cross Section0.480 m², Medium (>0.1 m² and < 1m²)

Expand to show TLE details & history

TLE from 12 hours ago
0 CHUBUSAT 2
1 41338U 16012B   24361.01407581  .00011136  00000-0  61659-3 0  9993
2 41338  30.9987 232.4602 0010822   5.3685 354.7069 15.12536115486626
Epoch: 2024-12-26T00:20Z
Definitive object data (Epoch: 2024-12-26T00:20:16.149Z)
Latitude-0°
Longitude132.39335°
Altitude519.536 km
Speed7.61 km/s
True Right ascension15h 29m 50s
True Declination0° 00' 00"
Sunlit
Object was in daylight at TLE epoch
Visualization TLE readout
Latitude-28.95508°
Longitude62.73465°
Altitude533.474 km
Speed7.598 km/s
Apparent Right ascension07h 41m 09s
Apparent Declination-74° 23' 07"
Sunlit
Object is in daylight
Visualization observer readout
Local Sidereal Time12:03:44
Azimuth196.845° SSW
Elevation-32.198°
Doppler factor1
Orbital elements
Apogee altitude539.793 km
Perigee altitude524.836 km
Semi-major axis6,910.451 km
Eccentricity0.0010822
Inclination30.9987°
RAAN232.4602°
Arg. of periapsis5.3685°
True anomaly354.69544°
Mean anomaly354.7069°
Eccentric anomaly354.70117°
Mean motion3.77819 °/min
BSTAR0.00061659
Orbital period95.28 mins
Loading maneuver chart data...
Loading historical data...
Loading historical data...
Loading historical data...
Loading historical data...
Loading historical data...
Loading historical data...
Loading historical data...

CHUBUSAT 2 Visibility forecast

Observer location: undefined°, undefined

Span
Click to sort rows by Start time (UTC) header in descending order
Start Az.
Max El. time (UTC)
Max El. Az.
Max El.
End time (UTC)
End Az.
4 mins2024-12-26 21:16:11.487Z212.203° SW2024-12-26 21:18:11.487Z171.94° S20.541°2024-12-26 21:20:11.487Z135.122° SSE
|